Location: Newark
(44.1667°N, 8.2500°E)
Time: 08:08:33
(UTC+00:00)

Transit 2A Rocket - All Passes

Search period start: 16 December 2019 00:00
Search period end: 26 December 2019 00:00
Orbit: 594 x 909 km, 66.7° (Epoch: 15 December)

Date Brightness Start Highest point End Pass type
(mag) Time Alt. Az. Time Alt. Az. Time Alt. Az.
16 Dec - 00:50:21 10° WNW 00:52:51 14° WSW 00:55:26 10° SW night (unlit)
16 Dec - 13:43:07 10° S 13:47:12 33° ESE 13:51:08 10° NE daylight
16 Dec - 15:25:51 10° WSW 15:29:44 29° NW 15:33:31 10° NNE daylight
16 Dec - 22:23:56 10° NNW 22:28:10 40° NE 22:32:40 10° ESE night (unlit)
17 Dec - 00:06:46 10° NW 00:10:32 26° WSW 00:14:33 10° SSW night (unlit)
17 Dec - 13:01:44 10° SSE 13:04:52 19° ESE 13:07:55 10° ENE daylight
17 Dec - 14:42:42 10° SW 14:47:04 48° NW 14:51:16 10° NNE daylight
17 Dec - 21:41:44 10° N 21:45:27 25° NE 21:49:21 10° ESE night (unlit)
17 Dec - 23:23:48 10° NW 23:28:09 45° WSW 23:32:49 10° S night (unlit)
18 Dec - 13:59:58 10° SSW 14:04:30 88° WNW 14:08:51 10° NNE daylight
18 Dec - 15:45:24 10° WNW 15:47:40 14° NW 15:49:55 10° N daylight
18 Dec - 20:59:48 10° N 21:02:38 16° NE 21:05:33 10° E night (unlit)
18 Dec - 22:41:09 10° NNW 22:45:41 82° WSW 22:50:34 10° SSE night (unlit)
19 Dec - 13:17:39 10° SSW 13:22:01 50° ESE 13:26:13 10° NE daylight
19 Dec - 15:01:24 10° W 15:04:48 21° NW 15:08:07 10° N daylight
19 Dec - 20:18:36 10° NNE 20:19:41 11° NE 20:20:46 10° NE night (unlit)
19 Dec - 21:58:41 10° NNW 22:03:08 57° NE 22:07:55 10° SE night (unlit)
19 Dec - 23:42:12 10° WNW 23:45:19 18° WSW 23:48:34 10° SSW night (unlit)
20 Dec - 12:35:50 10° S 12:39:38 27° ESE 12:43:19 10° NE daylight
20 Dec - 14:17:59 10° WSW 14:22:02 34° NW 14:26:00 10° NNE daylight
20 Dec - 21:16:23 10° NNW 21:20:29 34° NE 21:24:52 10° ESE night (unlit)
20 Dec - 22:58:55 10° NW 23:02:59 31° WSW 23:07:19 10° S night (unlit)
21 Dec - 11:54:48 10° SE 11:57:20 15° ESE 11:59:50 10° ENE daylight
21 Dec - 13:34:59 10° SW 13:39:25 59° NW 13:43:41 10° NNE daylight
21 Dec - 15:22:07 10° NW 15:22:52 10° NW 15:23:37 10° NNW daylight
21 Dec - 20:34:15 10° N 20:37:45 22° NE 20:41:24 10° E night (unlit)
21 Dec - 22:16:05 10° NW 22:20:33 56° WSW 22:25:23 10° SSE night (unlit)
22 Dec - 12:52:23 10° SSW 12:56:52 76° ESE 13:01:12 10° NE daylight
22 Dec - 14:37:11 10° W 14:39:54 16° NW 14:42:35 10° N daylight
22 Dec - 19:52:26 10° N 19:54:53 14° NE 19:57:23 10° ENE night (unlit)
22 Dec - 21:33:30 10° NNW 21:38:04 82° ENE 21:42:59 10° SSE night (unlit)
22 Dec - 23:18:12 10° W 23:20:03 12° WSW 23:21:57 10° SW night (unlit)
23 Dec - 12:10:14 10° S 12:14:25 40° ESE 12:18:29 10° NE daylight
23 Dec - 13:53:26 10° WSW 13:57:04 25° NW 14:00:39 10° N daylight
23 Dec - 20:51:05 10° NNW 20:55:29 47° NE 21:00:12 10° SE night (unlit)
23 Dec - 22:34:12 10° WNW 22:37:46 22° WSW 22:41:33 10° SSW night (unlit)
24 Dec - 11:28:37 10° SSE 11:32:04 22° ESE 11:35:26 10° ENE daylight
24 Dec - 13:10:10 10° WSW 13:14:21 40° NW 13:18:27 10° NNE daylight
24 Dec - 20:08:51 10° NNW 20:12:48 29° NE 20:17:00 10° ESE night (unlit)
24 Dec - 21:51:08 10° NW 21:55:25 38° WSW 22:00:00 10° S night (unlit)
25 Dec - 10:48:10 10° SE 10:49:49 12° ESE 10:51:26 10° E daylight
25 Dec - 12:27:19 10° SW 12:31:45 73° WNW 12:36:05 10° NNE daylight
25 Dec - 14:13:22 10° WNW 14:15:04 12° NW 14:16:46 10° NNW daylight
25 Dec - 19:26:48 10° N 19:30:01 19° NE 19:33:23 10° E night (unlit)
25 Dec - 21:08:23 10° NW 21:12:57 69° WSW 21:17:54 10° SSE night (unlit)
